Current Weather Conditions: station 46088

sailwx.info

Last reported at 2020-Jan-04 17:00 UTC.
Time now 2020-Jan-19 15:42 UTC

Location: N 48°18' W 123°12'.
View on Google Maps.

See reports from other nearby stations

  
Tides and Currents Weather Stations Pressure Air Temp Water Temp Dewpoint Dewpoint Depression Visibility Wind Speed Wind Dir Waves Ship Positions
date/time (UTC)wind fromknots sea level pressurealtimeterstation pressurevisibilityair tempwater tempwave heightnotes
2020-Jan-19 15:00 180 9 gusting 11 7.3 7.9
2020-Jan-19 14:50 170 9 gusting 11 7.5 7.9 0.6
2020-Jan-19 14:40 170 7 gusting 9 7.6 7.9
2020-Jan-19 14:30 170 3 gusting 7 7.6 7.9
2020-Jan-19 14:20 200 1 gusting 3 7.7 7.9 0.6
2020-Jan-19 14:10 260 1 gusting 1 7.7 7.9
2020-Jan-19 14:00 310 3 gusting 5 7.7 7.9
2020-Jan-19 13:50 310 5 gusting 7 7.7 7.9 0.4
2020-Jan-19 13:40 320 3 gusting 7 7.8 7.9
2020-Jan-19 13:30 340 3 gusting 9 7.6 7.9
2020-Jan-19 13:20 320 1 gusting 3 7.4 7.9 0.5
2020-Jan-19 13:10 310 1 gusting 3 7.3 7.9
2020-Jan-19 13:00 230 1 gusting 1 7.3 7.9
2020-Jan-19 12:50 190 1 gusting 3 7.3 7.9 0.5
2020-Jan-19 12:40 190 3 gusting 5 7.3 7.9
2020-Jan-19 12:30 180 5 gusting 7 7.2 7.9
2020-Jan-19 12:20 170 5 gusting 7 7.3 7.9 0.6
2020-Jan-19 12:10 170 7 gusting 9 7.4 7.9
2020-Jan-19 12:00 150 7 gusting 9 7.7 7.9
2020-Jan-19 11:50 150 5 gusting 7 7.7 7.9 0.7
2020-Jan-19 11:40 160 3 gusting 3 7.8 7.9
2020-Jan-19 11:30 190 1 gusting 3 7.8 7.9
2020-Jan-19 11:20 240 3 gusting 5 7.9 7.9 0.6
2020-Jan-19 11:10 190 3 gusting 5 8.2 7.9
2020-Jan-19 11:00 140 5 gusting 7 8.3 7.9
2020-Jan-19 10:50 100 5 gusting 9 8.2 7.9 0.6
2020-Jan-19 10:40 130 3 gusting 5 8.0 8.0
2020-Jan-19 10:30 150 3 gusting 5 7.6 7.9
2020-Jan-19 10:20 130 3 gusting 5 7.5 7.9 0.6
2020-Jan-19 10:10 120 3 gusting 3 7.5 7.9
2020-Jan-19 10:00 130 3 gusting 3 7.6 7.9
2020-Jan-19 09:50 160 1 gusting 1 7.6 7.9 0.5
2020-Jan-19 09:40 220 1 gusting 3 7.7 7.9
2020-Jan-19 09:30 250 3 gusting 3 7.7 7.9
2020-Jan-19 09:20 250 3 gusting 3 7.7 7.9 0.4
2020-Jan-19 09:10 270 1 gusting 3 7.6 7.9
2020-Jan-19 09:00 350 1 gusting 1 7.5 7.9
2020-Jan-19 08:50 010 1 gusting 3 7.4 7.9 0.4
2020-Jan-19 08:40 030 1 gusting 1 7.4 7.9
2020-Jan-19 08:30 030 1 gusting 1 7.4 7.9
2020-Jan-19 08:20 7.3 7.9 0.4
2020-Jan-19 08:10 210 1 gusting 3 7.4 8.0
2020-Jan-19 08:00 210 3 gusting 3 7.4 7.9
2020-Jan-19 07:50 200 3 gusting 5 7.5 7.9 0.4
2020-Jan-19 07:40 190 3 gusting 5 7.6 7.9
2020-Jan-19 07:30 220 5 gusting 5 7.6 8.0
2020-Jan-19 07:20 220 5 gusting 5 7.6 8.0 0.3
2020-Jan-19 07:10 230 3 gusting 5 7.6 8.0
2020-Jan-19 07:00 230 1 gusting 3 7.6 7.9
2020-Jan-19 06:50 280 3 gusting 3 7.6 8.0 0.3
2020-Jan-19 06:40 330 1 gusting 1 7.5 7.9
2020-Jan-19 06:30 020 1 gusting 1 7.5 8.0
2020-Jan-19 06:20 020 1 gusting 3 7.5 8.0 0.3
2020-Jan-19 06:10 060 3 gusting 3 7.5 7.9
2020-Jan-19 06:00 100 1 gusting 3 7.5 7.9
2020-Jan-19 05:50 150 1 gusting 3 7.5 8.0 0.3
2020-Jan-19 05:40 150 3 gusting 3 7.6 7.9
2020-Jan-19 05:30 160 3 gusting 3 7.6 7.9
2020-Jan-19 05:20 210 3 gusting 3 7.7 7.9 0.3
2020-Jan-19 05:10 240 3 gusting 3 7.7 7.9
2020-Jan-19 05:00 220 3 gusting 5 7.7 7.9
2020-Jan-19 04:50 200 5 gusting 5 7.6 7.9 0.3
2020-Jan-19 04:40 190 5 gusting 5 7.6 7.9
2020-Jan-19 04:30 180 3 gusting 5 7.7 7.9
2020-Jan-19 04:20 160 3 gusting 3 7.7 7.9 0.3
2020-Jan-19 04:10 150 3 gusting 3 7.8 7.9
2020-Jan-19 04:00 120 1 gusting 3 7.8 8.0
2020-Jan-19 03:50 120 3 gusting 3 7.8 7.9 0.4
2020-Jan-19 03:40 100 3 gusting 3 7.8 8.0
2020-Jan-19 03:30 070 1 gusting 3 7.8 7.9
2020-Jan-19 03:20 050 1 gusting 1 7.8 7.9 0.4
2020-Jan-19 03:10 070 1 gusting 3 7.8 8.0
2020-Jan-19 03:00 080 1 gusting 3 7.7 8.0
2020-Jan-19 02:50 100 1 gusting 3 7.7 8.0 0.4
2020-Jan-19 02:40 150 3 gusting 5 7.7 8.0
2020-Jan-19 02:30 150 3 gusting 5 7.7 7.9
2020-Jan-19 02:20 150 5 gusting 7 7.7 7.9 0.5
2020-Jan-19 02:10 180 3 gusting 5 7.6 7.9
2020-Jan-19 02:00 210 3 gusting 3 7.6 7.9
2020-Jan-19 01:50 190 1 gusting 3 7.6 7.9 0.5
2020-Jan-19 01:40 180 1 gusting 3 7.6 7.9
2020-Jan-19 01:30 140 3 gusting 3 7.6 8.0
2020-Jan-19 01:20 150 3 gusting 3 7.7 8.0 0.5
2020-Jan-19 01:10 160 3 gusting 3 7.7 8.0
2020-Jan-19 01:00 150 1 gusting 3 7.7 8.0
2020-Jan-19 00:50 160 1 gusting 3 7.7 8.0 0.5
2020-Jan-19 00:40 130 1 gusting 3 7.9 8.0
2020-Jan-19 00:30 120 1 gusting 3 7.9 8.0
2020-Jan-19 00:20 130 1 gusting 3 7.9 8.0 0.7
2020-Jan-19 00:10 120 1 gusting 1 8.0 8.0
2020-Jan-19 00:00 230 1 gusting 1 8.0 8.0
2020-Jan-18 23:50 280 1 gusting 1 8.0 8.0 0.6
2020-Jan-18 23:40 220 1 gusting 3 8.2 8.0
2020-Jan-18 23:30 160 3 gusting 7 8.3 8.0
2020-Jan-18 23:20 150 7 gusting 9 8.3 8.0 0.6
2020-Jan-18 23:10 140 7 gusting 9 8.2 8.0
2020-Jan-18 23:00 130 9 gusting 11 8.2 8.0
2020-Jan-18 22:50 140 11 gusting 13 8.2 8.0 0.8
2020-Jan-18 22:40 140 9 gusting 13 8.2 8.0
2020-Jan-18 22:30 140 9 gusting 13 8.1 8.0
2020-Jan-18 22:20 130 9 gusting 11 8.1 8.0 1.0
2020-Jan-18 22:10 140 11 gusting 13 8.1 7.9
2020-Jan-18 22:00 140 11 gusting 15 8.1 7.9
2020-Jan-18 21:50 140 13 gusting 17 8.0 7.9 1.0
2020-Jan-18 21:40 140 15 gusting 19 7.9 7.9
2020-Jan-18 21:30 130 15 gusting 17 7.8 7.9
2020-Jan-18 21:20 130 15 gusting 19 7.7 7.9 1.1
2020-Jan-18 21:10 130 15 gusting 17 7.6 8.0
2020-Jan-18 21:00 130 11 gusting 15 7.6 8.0
2020-Jan-18 20:50 150 7 gusting 9 7.5 8.0 1.2
2020-Jan-18 20:40 160 7 gusting 9 7.4 8.0
2020-Jan-18 20:30 170 9 gusting 11 7.5 7.9
2020-Jan-18 20:20 140 11 gusting 15 7.6 8.0 1.3
2020-Jan-18 20:10 140 11 gusting 17 7.6 8.0
2020-Jan-18 20:00 140 11 gusting 15 7.5 8.0
2020-Jan-18 19:50 140 13 gusting 19 7.4 7.9 1.4
2020-Jan-18 19:40 140 17 gusting 21 7.4 7.9
2020-Jan-18 19:30 140 17 gusting 21 7.3 7.9
2020-Jan-18 19:20 140 17 gusting 21 7.2 7.9 1.5
2020-Jan-18 19:10 140 19 gusting 23 7.1 7.9
2020-Jan-18 19:00 140 21 gusting 27 7.0 7.9
2020-Jan-18 18:50 140 23 gusting 27 6.9 7.9 1.6
2020-Jan-18 18:40 140 23 gusting 29 6.8 7.9
2020-Jan-18 18:30 140 25 gusting 33 6.7 7.9
2020-Jan-18 18:20 130 25 gusting 31 6.6 7.9 1.5
2020-Jan-18 18:10 130 27 gusting 33 6.4 7.9
2020-Jan-18 18:00 130 27 gusting 34 6.2 7.9
2020-Jan-18 17:50 130 27 gusting 34 6.1 7.9 1.7
2020-Jan-18 17:40 130 27 gusting 33 6.1 7.9
2020-Jan-18 17:30 130 27 gusting 33 6.0 7.9
2020-Jan-18 17:20 130 29 gusting 34 5.9 7.9 1.6
2020-Jan-18 17:10 130 29 gusting 36 5.8 7.9
2020-Jan-18 17:00 130 29 gusting 36 5.7 7.9
2020-Jan-18 16:50 130 29 gusting 38 5.6 7.9 1.7
2020-Jan-18 16:40 130 31 gusting 40 5.6 7.9
2020-Jan-18 16:30 130 29 gusting 38 5.6 7.9
2020-Jan-18 16:20 130 31 gusting 38 5.6 7.9 1.8
2020-Jan-18 16:10 130 31 gusting 38 5.6 7.9
2020-Jan-18 16:00 130 31 gusting 38 5.6 7.9
2020-Jan-18 15:50 130 31 gusting 38 5.7 7.9 1.9
2020-Jan-18 15:40 130 31 gusting 40 5.7 7.9
2020-Jan-18 15:30 130 31 gusting 38 5.6 7.9
2020-Jan-18 15:20 130 31 gusting 38 5.5 7.9 1.9
2020-Jan-18 15:10 130 31 gusting 38 5.5 7.9
2020-Jan-18 15:00 140 31 gusting 40 5.7 7.9
2020-Jan-18 14:50 140 31 gusting 40 5.7 7.9 2.0
2020-Jan-18 14:40 130 31 gusting 40 5.7 7.9
2020-Jan-18 14:30 130 31 gusting 38 5.7 7.9
2020-Jan-18 14:20 130 31 gusting 40 5.7 7.9 1.8
2020-Jan-18 14:10 140 31 gusting 40 5.7 7.9
2020-Jan-18 14:00 140 31 gusting 40 5.7 7.9
2020-Jan-18 13:50 140 33 gusting 42 5.7 7.9 1.8
2020-Jan-18 13:40 140 31 gusting 38 5.7 8.0
2020-Jan-18 13:30 140 31 gusting 40 5.5 7.9
2020-Jan-18 13:20 140 29 gusting 38 5.3 7.9 1.9
2020-Jan-18 13:10 140 31 gusting 42 5.0 7.9
2020-Jan-18 13:00 140 29 gusting 40 5.0 7.9
2020-Jan-18 12:50 130 31 gusting 42 4.8 7.9 2.0
2020-Jan-18 12:40 130 31 gusting 42 4.8 7.9
2020-Jan-18 12:30 130 31 gusting 42 4.7 8.0
2020-Jan-18 12:20 130 31 gusting 42 4.8 7.9
2020-Jan-18 12:10 7.9
2020-Jan-18 12:00 130 31 gusting 42 4.9 7.9
2020-Jan-18 11:50 130 31 gusting 40 4.9 7.9 2.1
2020-Jan-18 11:40 130 31 gusting 40 4.8 8.0
2020-Jan-18 11:30 130 29 gusting 40 5.0 8.0
2020-Jan-18 11:20 130 29 gusting 40 5.1 8.0 2.0
2020-Jan-18 11:10 130 29 gusting 36 5.2 8.0
2020-Jan-18 11:00 130 27 gusting 38 5.2 8.0
2020-Jan-18 10:50 140 29 gusting 38 5.3 8.0 1.8
2020-Jan-18 10:40 130 29 gusting 40 5.5 7.9
2020-Jan-18 10:30 130 27 gusting 36 5.4 8.0
2020-Jan-18 10:20 130 27 gusting 36 5.5 8.0 1.7
2020-Jan-18 10:10 140 27 gusting 36 5.6 8.0
2020-Jan-18 10:00 130 27 gusting 38 5.6 8.0
2020-Jan-18 09:50 130 25 gusting 36 5.7 8.0 1.4
2020-Jan-18 09:40 130 23 gusting 33 5.6 8.0
2020-Jan-18 09:30 130 23 gusting 31 5.3 8.0
2020-Jan-18 09:20 120 25 gusting 31 4.9 8.0 1.6
2020-Jan-18 09:10 120 25 gusting 34 4.9 8.0
2020-Jan-18 09:00 120 27 gusting 36 4.9 8.0
2020-Jan-18 08:50 120 29 gusting 36 4.9 8.0 1.7
2020-Jan-18 08:40 120 27 gusting 34 4.9 8.0
2020-Jan-18 08:30 120 27 gusting 34 5.1 8.0
2020-Jan-18 08:20 120 27 gusting 36 5.2 8.0 1.7
2020-Jan-18 08:10 120 29 gusting 36 5.3 8.0
2020-Jan-18 08:00 120 29 gusting 36 5.4 8.0
2020-Jan-18 07:50 120 31 gusting 40 5.4 8.0 1.7
2020-Jan-18 07:40 120 29 gusting 38 5.3 8.0
2020-Jan-18 07:30 130 31 gusting 38 5.3 8.0
2020-Jan-18 07:20 130 31 gusting 38 5.3 8.0 1.8
2020-Jan-18 07:10 130 29 gusting 36 5.3 8.0
2020-Jan-18 07:00 120 29 gusting 36 5.3 7.9
2020-Jan-18 06:50 130 29 gusting 38 5.4 7.9 1.7
2020-Jan-18 06:40 130 29 gusting 38 5.4 8.0
2020-Jan-18 06:30 130 29 gusting 36 5.5 8.0
2020-Jan-18 06:20 130 29 gusting 36 5.6 8.0 1.5
2020-Jan-18 06:10 120 29 gusting 36 5.7 8.0
2020-Jan-18 06:00 120 29 gusting 34 5.8 8.0
2020-Jan-18 05:50 120 31 gusting 36 5.8 8.0 1.3
2020-Jan-18 05:40 120 27 gusting 34 5.9 8.0
2020-Jan-18 05:30 120 25 gusting 31 5.8 8.0
2020-Jan-18 05:20 120 27 gusting 33 5.9 8.0 1.1
2020-Jan-18 05:10 120 25 gusting 33 5.9 8.0
2020-Jan-18 05:00 120 29 gusting 34 5.8 8.0
2020-Jan-18 04:50 120 27 gusting 33 5.8 8.0 1.0
2020-Jan-18 04:40 120 25 gusting 31 5.7 8.0
2020-Jan-18 04:30 130 25 gusting 33 5.5 7.9
2020-Jan-18 04:20 130 25 gusting 31 5.3 7.9 0.8
2020-Jan-18 04:10 130 25 gusting 33 5.1 8.0
2020-Jan-18 04:00 130 23 gusting 31 5.0 8.0
2020-Jan-18 03:50 130 23 gusting 29 4.9 8.0 0.8
2020-Jan-18 03:40 120 21 gusting 27 4.9 8.0
2020-Jan-18 03:30 130 21 gusting 25 4.9 8.0
2020-Jan-18 03:20 130 21 gusting 27 4.7 8.0 0.8
2020-Jan-18 03:10 130 21 gusting 27 4.7 8.0
2020-Jan-18 03:00 130 21 gusting 27 4.7 8.0
2020-Jan-18 02:50 130 21 gusting 27 4.6 8.0 0.7
2020-Jan-18 02:40 130 19 gusting 25 4.5 8.0
2020-Jan-18 02:30 120 19 gusting 25 4.4 8.0
2020-Jan-18 02:20 120 17 gusting 23 4.4 8.0 0.8
2020-Jan-18 02:10 120 17 gusting 21 4.3 8.0
2020-Jan-18 02:00 120 17 gusting 23 4.3 8.0
2020-Jan-18 01:50 120 17 gusting 23 4.3 8.0 0.7
2020-Jan-18 01:40 120 17 gusting 21 4.4 8.0
2020-Jan-18 01:30 120 17 gusting 23 4.4 8.0
2020-Jan-18 01:20 120 17 gusting 23 4.4 8.0 0.8
2020-Jan-18 01:10 130 17 gusting 23 4.4 8.0
2020-Jan-18 01:00 130 19 gusting 23 4.4 8.0
2020-Jan-18 00:50 130 19 gusting 25 4.3 8.0 0.7
2020-Jan-18 00:40 120 19 gusting 23 4.4 8.0
2020-Jan-18 00:30 130 19 gusting 23 4.6 8.0
2020-Jan-18 00:20 130 19 gusting 23 4.6 8.0 0.7
2020-Jan-18 00:10 120 19 gusting 25 4.7 8.0
2020-Jan-18 00:00 120 19 gusting 23 4.8 8.0
2020-Jan-17 23:50 120 19 gusting 23 5.0 8.0 0.7
2020-Jan-17 23:40 120 19 gusting 25 5.1 8.0
2020-Jan-17 23:30 120 19 gusting 23 5.1 8.0
2020-Jan-17 23:20 120 19 gusting 25 5.1 8.0 0.6
2020-Jan-17 23:10 120 19 gusting 23 5.1 8.0
2020-Jan-17 23:00 110 17 gusting 21 5.0 8.0
2020-Jan-17 22:50 110 17 gusting 21 5.0 8.0 0.5
2020-Jan-17 22:40 120 15 gusting 19 4.9 8.0
2020-Jan-17 22:30 110 13 gusting 15 4.8 8.0
2020-Jan-17 22:20 110 15 gusting 17 4.7 8.0 0.5
2020-Jan-17 22:10 100 15 gusting 19 4.7 8.0
2020-Jan-17 22:00 100 15 gusting 19 4.8 8.0
2020-Jan-17 21:50 100 13 gusting 17 4.8 8.0 0.4
2020-Jan-17 21:40 110 15 gusting 17 4.7 8.0
2020-Jan-17 21:30 090 13 gusting 17 4.6 8.0
2020-Jan-17 21:20 080 13 gusting 15 4.4 8.0 0.4
2020-Jan-17 21:10 080 13 gusting 15 4.5 8.0
2020-Jan-17 21:00 090 13 gusting 17 4.4 8.0
2020-Jan-17 20:50 090 11 gusting 15 4.3 8.0 0.3
2020-Jan-17 20:40 070 11 gusting 13 4.0 8.0
2020-Jan-17 20:30 070 11 gusting 13 4.0 8.0
2020-Jan-17 20:20 070 9 gusting 13 3.9 8.0 0.3
2020-Jan-17 20:10 080 7 gusting 11 3.9 8.0
2020-Jan-17 20:00 090 7 gusting 9 3.7 8.0
2020-Jan-17 19:50 090 7 gusting 11 3.7 8.0 0.3
2020-Jan-17 19:40 090 9 gusting 11 3.7 8.0
2020-Jan-17 19:30 080 9 gusting 11 3.8 8.0
2020-Jan-17 19:20 080 9 gusting 13 3.9 8.0 0.3
2020-Jan-17 19:10 080 9 gusting 11 4.1 8.0
2020-Jan-17 19:00 100 9 gusting 11 4.1 8.0
2020-Jan-17 18:50 090 9 gusting 11 4.1 8.0 0.3
2020-Jan-17 18:40 100 7 gusting 9 4.2 8.0
2020-Jan-17 18:30 100 7 gusting 9 4.2 8.0
2020-Jan-17 18:20 110 7 gusting 9 4.2 7.9 0.3
2020-Jan-17 18:10 120 7 gusting 9 4.2 7.9
2020-Jan-17 18:00 140 7 gusting 9 4.1 7.9
2020-Jan-17 17:50 140 7 gusting 11 4.1 7.9 0.3
2020-Jan-17 17:40 140 7 gusting 9 4.2 7.9
2020-Jan-17 17:30 150 7 gusting 11 4.1 7.9
2020-Jan-17 17:20 150 7 gusting 11 3.9 7.9 0.3
2020-Jan-17 17:10 150 7 gusting 11 3.9 8.0
2020-Jan-17 17:00 150 7 gusting 9 3.9 8.0
2020-Jan-17 16:50 140 9 gusting 13 3.9 8.0 0.2
2020-Jan-17 16:40 150 9 gusting 11 3.9 8.0
2020-Jan-17 16:30 140 7 gusting 11 3.8 7.9
2020-Jan-17 16:20 150 7 gusting 9 3.8 7.9 0.2
2020-Jan-17 16:10 150 7 gusting 9 3.7 7.9
2020-Jan-17 16:00 160 7 gusting 9 3.6 8.0
2020-Jan-17 15:50 160 7 gusting 11 3.6 8.0 0.2
2020-Jan-17 15:40 160 7 gusting 11 3.5 7.9
2020-Jan-17 15:30 160 9 gusting 11 3.5 8.0
2020-Jan-17 15:20 170 9 gusting 11 3.4 8.0 0.3
2020-Jan-17 15:10 170 9 gusting 11 3.6
2020-Jan-17 15:00 160 7 gusting 11 3.8 7.9